#timestamp,LO_Frequency,Hit,StdDev 
1548975615.8,286046998.7,N
1548975635.7,286047001.0,N
1548975655.5,286047000.0,N
1548975675.4,286047000.9,N
1548975695.2,286047000.1,N
1548975715.0,286047002.6,N
1548975715.9,286047002.6,N
1548975735.8,286047000.9,N
1548975755.6,286046999.9,N
1548975775.4,286046998.8,N
1548975795.3,286047000.9,N
1548975815.1,286047000.4,N
1548975835.9,286046999.7,N
1548975855.7,286047002.2,N
1548975875.5,286047002.5,N
1548975895.4,286047002.5,N
1548975915.2,286047002.0,N
1548975935.0,286046999.9,N
1548975935.9,286046999.9,N
1548975955.8,286046999.7,N
1548975975.6,286047000.4,N
1548975995.5,286047002.7,N
1548976015.3,286047000.7,N
1548976035.1,286047001.0,N
1548976055.9,286047000.5,N
1548976075.7,286046998.1,N
1548976095.5,286046999.1,N
1548976115.4,286046996.9,N
1548976135.2,286046997.4,N
1548976155.1,286046997.1,N
1548976156.0,286046997.1,N
1548976175.8,286046996.6,N
1548976195.6,286046999.0,N
1548976215.5,286046999.3,N
1548976235.3,286046998.7,N
1548976255.1,286046998.7,N
1548976275.9,286047000.4,N
1548976295.7,286046999.7,N
1548976315.6,286046999.9,N
1548976335.4,286047000.0,N
1548976355.2,286046999.8,N
1548976375.1,286047001.2,N
1548976376.0,286047001.2,N
1548976395.8,286046998.4,N
1548976415.6,286046999.3,N
1548976435.5,286046998.4,N
1548976455.3,286046998.5,N
1548976475.2,286046999.9,N
1548976495.9,286046999.7,N
1548976515.7,286047002.0,N
1548976535.6,286047002.1,N
1548976555.4,286047001.9,N
1548976575.2,286047002.3,N
1548976595.1,286047002.8,N
1548976596.0,286047002.8,N
1548976615.8,286047002.7,N
1548976635.7,286047000.4,N
1548976655.5,286046998.6,N
1548976675.3,286047000.6,N
1548976695.2,286046998.2,N
1548976715.0,286047000.2,N
1548976715.9,286047000.2,N
1548976735.8,286047000.9,N
1548976755.6,286047000.8,N
1548976775.4,286047000.4,N
1548976795.3,286047000.0,N
1548976815.1,286046998.4,N
1548976835.8,286046998.5,N
1548976855.7,286046999.0,N
1548976875.5,286046998.1,N
1548976895.4,286047000.8,N
1548976915.2,286047000.8,N
1548976935.0,286046999.9,N
1548976935.9,286046999.9,N
1548976955.8,286047001.0,N
1548976975.6,286047000.6,N
1548976995.4,286047000.1,N
1548977015.3,286046998.5,N
1548977035.1,286047000.9,N
1548977055.9,286047000.6,N
1548977075.7,286047001.2,N
1548977095.5,286047001.2,N
1548977115.7,286047001.1,N
1548977135.5,286046998.8,N
1548977155.3,286047000.9,N
1548977175.2,286047000.6,N
1548977195.0,286046998.2,N
1548977195.9,286046998.2,N
1548977215.8,286047000.9,N
1548977235.6,286046999.8,N
1548977255.4,286047002.5,N
1548977275.3,286047000.2,N
1548977295.3,286046999.8,N
1548977315.1,286047002.4,N
1548977335.9,286047003.5,N
1548977355.7,286047007.5,Y
1548977375.6,286047005.8,P
1548977395.4,286047003.7,N
1548977415.2,286047004.0,N
1548977435.1,286047003.9,N
1548977436.0,286047003.9,N
1548977455.8,286047002.3,N
1548977475.6,286047001.7,N
1548977495.5,286047001.6,N
1548977515.3,286047001.7,N
1548977535.2,286047002.4,N
1548977555.9,286047000.2,N
1548977575.7,286046999.9,N
1548977595.6,286047002.3,N
1548977615.4,286047002.5,N
1548977635.2,286046999.8,N
1548977655.1,286047001.8,N
1548977656.0,286047001.8,N
1548977675.8,286047003.9,N
1548977695.7,286047004.0,N
1548977715.5,286047004.3,N
1548977735.3,286047002.2,N
1548977755.2,286047001.6,N
1548977775.0,286047000.1,N
1548977775.9,286047000.1,N
1548977795.8,286046998.1,N
1548977815.6,286047000.5,N
1548977835.4,286047000.4,N
1548977855.3,286047000.5,N
1548977875.1,286047000.5,N
1548977895.9,286047001.0,N
1548977915.7,286047000.0,N
1548977935.5,286047000.4,N
1548977955.4,286047000.6,N
1548977975.2,286047001.2,N
1548977995.4,286046998.8,N
1548978015.2,286046998.4,N
1548978035.1,286047000.9,N
1548978036.0,286047000.9,N
1548978055.8,286047000.6,N
1548978075.6,286047001.0,N
1548978095.5,286047000.5,N
1548978115.3,286047002.8,N
1548978135.1,286047002.0,N
1548978155.9,286047002.3,N
1548978175.7,286047002.2,N
1548978195.6,286047000.1,N
1548978215.4,286047000.3,N
1548978235.2,286046999.7,N
1548978255.1,286047002.3,N
1548978256.0,286047002.3,N
1548978275.8,286047002.7,N
1548978295.6,286047002.8,N
1548978315.5,286047002.3,N
1548978335.3,286047000.5,N
1548978355.2,286047001.0,N
1548978375.9,286047000.1,N
1548978395.7,286046999.8,N
1548978415.6,286047000.1,N
1548978435.4,286047002.6,N
1548978455.2,286047001.9,N
1548978475.1,286047002.5,N
1548978476.0,286047002.5,N
1548978495.8,286047002.6,N
1548978515.7,286047002.0,N
1548978535.5,286047001.4,N
1548978555.3,286047002.6,N
1548978575.2,286046999.8,N
1548978595.0,286047001.6,N
1548978595.9,286047001.6,N
1548978615.7,286047002.8,N
1548978635.6,286047001.8,N
1548978655.4,286047001.6,N
1548978675.3,286047004.4,Y
1548978695.1,286047000.5,P
1548978715.8,286046999.9,N
1548978735.7,286047000.0,N
1548978755.3,286047001.8,N
1548978775.2,286047004.0,Y
1548978795.0,286047002.2,P
1548978795.9,286047002.2,P
1548978815.8,286047000.3,N
1548978835.6,286047000.8,N
1548978855.4,286047000.2,N
1548978875.3,286047000.4,N
1548978895.1,286047000.4,N
1548978915.9,286047000.5,N
1548978935.7,286047001.1,N
1548978955.5,286046998.7,N
1548978975.4,286046998.9,N
1548978995.2,286046998.5,N
1548979015.0,286047001.2,N
1548979015.9,286047001.2,N
1548979035.8,286047000.7,N
1548979055.6,286047000.6,N
1548979075.5,286047002.7,N
1548979095.3,286047000.2,N
1548979115.1,286046999.7,N
1548979135.9,286047000.2,N
1548979155.7,286047002.4,N
1548979175.6,286047000.5,N
1548979195.4,286047001.0,N
